Location: Haieshausen
(51.8387°N, 9.9720°E)
Time: 04:29:07
(UTC+00:00)

Cosmos 1980 Rocket - Pass Details

Date: 14 July 2020
Orbit: 828 x 851 km, 71.0° (Epoch: 10 August)

Event Time Altitude Azimuth Distance (km) Brightness Sun altitude
Rises 01:38:52 0° 329° (NNW) 3,430 5.8 -11.0°
Reaches altitude 10° 01:41:19 10° 329° (NNW) 2,491 5.0 -10.8°
Maximum altitude 01:47:04 85° 242° (WSW) 861 2.2 -10.3°
Drops below altitude 10° 01:52:45 10° 154° (SSE) 2,468 4.3 -9.8°
Sets 01:55:11 0° 154° (SSE) 3,396 5.1 -9.6°
